Regional Weather Roundup
Issued by NWS

Home | Current Version | Previous Version | Text Only | Print | Product List | Glossary On
Versions: 1 2 3 4 5 6 7 8 9 10 11 12 13 14 15 16 17 18 19 20 21 22 23 24 25 26 27 28 29 30 31 32 33 34 35 36 37 38 39 40 41 42 43 44 45 46 47 48 49 50
000
ASUS44 KLUB 240001
RWRTX
WEST TEXAS WEATHER ROUNDUP
NATIONAL WEATHER SERVICE LUBBOCK TX
700 PM CDT WED APR 23 2014

NOTE: "FAIR" INDICATES FEW OR NO CLOUDS BELOW 12,000 FEET WITH NO
SIGNIFICANT WEATHER AND/OR OBSTRUCTIONS TO VISIBILITY.

TXZ004-006>008-010-012-014-016-OKZ002-240100-
TEXAS PANHANDLE/OKLAHOMA PANHANDLE

CITY           SKY/WX    TMP DP  RH WIND       PRES   REMARKS
AMARILLO       MOSUNNY   86  12   6 S31G38    29.57F
BORGER         SUNNY     89  17   7 SW21G32   29.53F
DALHART        SUNNY     84  15   7 SW28G36   29.56F
GUYMON         SUNNY     87  16   7 SW26G37   29.47F
$$

TXZ026-029-035-045-048-240100-
SOUTHERN PANHANDLE/SOUTH PLAINS/ROLLING PLAINS

CITY           SKY/WX    TMP DP  RH WIND       PRES   REMARKS
CHILDRESS      CLOUDY    76  59  55 SE20G32   29.57F
SEMINOLE       PTSUNNY   85  20   9 SW20G26   29.69F
LUBBOCK        PTSUNNY   87  28  12 SW30G41   29.62F
SNYDER         PTSUNNY   90  42  18 SW14G25   29.63F
$$

TXZ052-054-060>062-072-078-127-140-154-169-240100-
PERMIAN BASIN/CONCHO VALLEY/BIG COUNTRY/EDWARDS PLATEAU

CITY           SKY/WX    TMP DP  RH WIND       PRES   REMARKS
ABILENE        MOSUNNY   88  52  29 S20G29    29.62F
BROWNWOOD      MOSUNNY   86  57  37 SE16G30   29.68F
JUNCTION       CLOUDY    86  57  37 S15G26    29.73S
MIDLAND        PTSUNNY   88  38  17 W17       29.66F
ODESSA           N/A    N/A N/A N/A MISG      29.68S
SAN ANGELO     PTSUNNY   89  53  29 S18G30    29.64F
WINK           CLOUDY    89  15   6 W18       29.65F
$$

TXZ055-058-074-075-080-082-240100-
FAR WEST/SOUTHWEST MOUNTAINS/TRANS PECOS

CITY           SKY/WX    TMP DP  RH WIND       PRES   REMARKS
DRYDEN           N/A     91  58  32 SE17G24   29.67S
EL PASO        MOSUNNY   84  18   8 W28G35    29.74F
FORT STOCKTON  CLOUDY    91  20   7 VRB7      29.69F
GUADALUPE PASS SUNNY     76  15  10 SW33G54   29.81F
MARFA          PTSUNNY   82  21  10 W16       29.85S
PECOS          CLOUDY    88  32  13 W17G23    29.65F
PRESIDIO       FAIR      91  15   6 S17       29.70S
$$

TXZ014-016-019-021>030-083-240100
TEXAS TECH WEST TEXAS MESONET/TEXAS PANHANDLE/NORTHERN SOUTH PLAINS

CITY           SKY/WX    TMP DP  RH WIND       PRES   REMARKS
ABERNATHY 5ENE   N/A     86  23  10 SW26      29.63F
AMARILLO 9NNE    N/A     87  18   8 S24       29.54F
AMARILLO 7SSE    N/A     86  17   7 SW23      29.59S
AMHERST 1NE      N/A     85  13   7 SW26G37   29.63F
BOOTLEG 11WNW    N/A     82  16   8 S17       29.65S
CANADIAN 6E      N/A     77  56  47 SE31G40   29.54F
CAPROCK CYN SP   N/A     89  28  11 SW25      29.57F
CHILDRESS 2NNE   N/A     76  60  56 SE20      29.56F
CLARENDON 2WSW   N/A     85  44  23 S16G28    29.58S
CLAUDE 12SW      N/A     86  21   9 S16       29.59S
DIMMITT 2NE      N/A     84  15   7 S29       29.61F
FLOYDADA 2NNE    N/A     85  24  11 SW23      29.62S
FRIONA 2NE       N/A     84  16   8 SW20      29.62S
GOODLETT 3W      N/A     77  57  50 SE21      29.55S
HART 3N          N/A     84  16   8 SW28      29.61F
HEREFORD 2NW     N/A     85  13   7 SW25      29.59F
MCLEAN 1E        N/A     70  56  62 E14       29.59S
MEMPHIS 1NE      N/A     73  63  69 E9        29.56F
MULESHOE 2SSW    N/A     85  13   7 S24G33    29.63S
OLTON 6S         N/A     85  13   7 SW28      29.62S
PALO DURO SP     N/A     87  16   7 SW16      29.60S
PAMPA 2E         N/A     74  54  49 SE23G33   29.59S
PLAINVIEW 1S     N/A     86  21   9 SW22G32   29.61S
SILVERTON 7ESE   N/A     87  28  12 SW23      29.60S
TULIA 2ENE       N/A     85  21   9 SW26      29.61S
UMBARGER 3NNE    N/A     85  16   7 S30       29.59F
$$

TXZ033>036-039>041-045>048-240100
TEXAS TECH WEST TEXAS MESONET/SOUTH PLAINS

CITY           SKY/WX    TMP DP  RH WIND       PRES   REMARKS
AIKEN 3WSW       N/A     87  25  11 SW30      29.62F
ANDREWS 2NE      N/A     86  28  12 SW12      29.68F
ANTON 6SSW       N/A     87  22   9 SW26G37   29.63F
BROWNFIELD 2S    N/A     84  25  11 S20       29.66F
DENVR CTY 7WNW   N/A     85  17   8 SW25G36   29.67F
GAIL 2ESE        N/A     89  35  15 SW15      29.62F
LAMESA 2SE       N/A     80  35  19 SW15      29.67S
LEVELLAND 4S     N/A     86  14   7 SW25      29.64F
LUBBOCK 3WNW     N/A     87  28  11 S20G31    29.64F
MORTON 1ENE      N/A     84  15   7 SW28G41   29.65S
ODONNELL 1N      N/A     87  27  11 SW21G33   29.65F
PLAINS 3N        N/A     85  15   7 SW23      29.67F
RALLS 1SE        N/A     88  32  13 SW23      29.63F
REESE CENTER     N/A     86  24  10 S28       29.64F
SEAGRAVES 1SW    N/A     85  20   9 S20       29.67S
SEMINOLE 2NNE    N/A     85  17   8 SW20      29.67F
SLATON 2NE       N/A     86  30  13 SW25      29.63F
SNYDER 3E        N/A     91  42  18 SW16      29.62F
SUNDOWN 8SW      N/A     87  13   6 SW25      29.66S
TAHOKA 3NNE      N/A     86  30  13 SW18      29.64F
WOLFFORTH 6SSW   N/A     86  28  12 S21       29.65F
$$

TXZ031-032-036>038-042>044-240100-
TEXAS TECH WEST TEXAS MESONET/ROLLING PLAINS

CITY           SKY/WX    TMP DP  RH WIND       PRES   REMARKS
ASPERMONT 3NE    N/A     67  59  75 E8        29.58F
FLUVANNA 3WNW    N/A     88  36  15 SW23      29.63F
GRAHAM 5SSW      N/A     87  32  14 S18       29.63F
GUTHRIE 10WSW    N/A     89  47  24 S22       29.56S
HASKELL 1NW      N/A     87  51  28 SE14      29.58F
KNOX CITY 3NW    N/A     87  47  25 S21       29.56S
LK A HENRY 1NW   N/A     91  40  16 SW18      29.59F
NORTHFIELD 1S    N/A     82  58  44 SE17      29.55F
ODELL 4ENE       N/A     78  60  54 SE15      29.58R
PADUCAH 10SW     N/A     77  62  59 E15       29.57S
POST 1NE         N/A     88  35  15 S17       29.61F
RRING SPRGS 3N   N/A     88  37  16 SW20G30   29.58F
SEYMOUR 3NW      N/A     86  51  30 SE23      29.56F
SPUR 1W          N/A     90  35  14 SW20      29.58S
WEINERT 2NNE     N/A     86  56  35 S12       29.60R
WHITE RVR 6NE    N/A     87  36  16 S20       29.60F
$$

TXZ052-054-060>062-072-078-127-140-154-169-240100-
TEXAS TECH WEST TEXAS MESONET/PERMIAN BASIN/
CONCHO VALLEY/BIG COUNTRY/EDWARDS PLATEAU

CITY           SKY/WX    TMP DP  RH WIND       PRES   REMARKS
COYANOSA 2N      N/A     90  22   8 W12       29.66F
JUNCTION 1SSW    N/A     85  59  40 S15       29.74S
MERTZON 3NNE     N/A     87  54  32 S24       29.67F
SAN ANGELO 7NW   N/A     90  49  24 S18       29.65F
STRLNG CT 4WSW   N/A     89  49  25 S14       29.65F
ST LAWRNCE 5SW LGT RAIN  82  51  33 S10       29.67R
SWEETWATR 11SW   N/A     89  47  23 S15       29.65F
WALL 1E          N/A     89  51  28 S22       29.66F
$$

TXZ055-058-074-075-080-082-240100-
TEXAS TECH WEST TEXAS MESONET/FAR WEST/SOUTHWEST MOUNTAINS/TRANS PECOS

CITY           SKY/WX    TMP DP  RH WIND       PRES   REMARKS
PRSMN GAP BBNP   N/A     94  21   7 SW18      29.68F
$$



USA.gov is the U.S. government's official web portal to all federal, state and local government web resources and services.